Погода в Барнауле

Погода в Барнауле : погода сейчас, прогноз погоды и архив. Всё, что Вы хотите узнать о погоде в Барнауле!

Хотите узнать прогноз погоды Барнаул? Тогда Вам сюда: Погода Барнаул

Поиск расширенной информации на нашем сайте:

Другие новости

Новости СМИ2

Главная страница сайта

Новости сайта

03.07.2017

Напоминаем, что на нашем специализированном сайте Метеоцентр.Азия вы можете получить высокодетализированные автоматические прогнозы погоды по пунктам России, СНГ и мира в авиационном формате (включающие направление и скорость ветра, видимость, явления погоды, количество и форму облачности, нижнюю и верхнюю границу облачности).


Погода в Барнауле - сегодня

Время (UTC), дата Ветер
(°,м/с) 
Видим.   Явления Облачность Т
(°С)
Тd
(°С)
f(%) Тe
(°С)
Pmin
(гПа)
dP
(гПа)
Po
(мм)
O2
(г/м3)
Тmin Tmax R s Состояние
почвы
03 20.02.18 170 (Ю) 10 км    10/0 средняя 
[As op]
-11.5 -14.2 80 -11  1039.3  761  321           
06 20.02.18 210 (ЮЗ) 10 км    9/0 средняя, верхняя 
[Ac trans|Ci fib]
-8.8 -13 72 -12  1038.7  -0.3  761  318           
09 20.02.18 210 (ЮЗ) 10 км    6/0 верхняя 
[Ci fib]
-6.9 -12.5 64 -8  1037.3  -1.1  760  315           
12 20.02.18 200 (Ю) 10 км    3/0 верхняя 
[Ci fib]
-12.1 -15 79 -12  1036.8  -1.1  759  321    -6.3       
15 20.02.18 180 (Ю) 10 км    ясно 
-11.9 -14 84 -12  1035.2  -1.5  758  321           
18 20.02.18 120 (ЮВ) 10 км    ясно 
-15.6 -17.2 87 -16  1033.6  -1.9  757  325           
21 20.02.18 тихо ()   10 км    ясно 
-16.6 -18.2 87 -17  1032.4  -1.3  756  326           
00 21.02.18 140 (ЮВ) 10 км    ясно 
-17.7 -19.3 87 -18  1031.2  -1.3  755  327  -18.3         
03 21.02.18 тихо ()   4000 м  дымка  10/0 верхняя 
[Cs]
-15.9 -17.6 87 -16  1030  -0.9  754  324           
06 21.02.18 030 (СВ) 10 км    10/0 верхняя 
[Cs]
-9 -12.9 73 -9  1028  -1.4  753  315           
09 21.02.18 050 (СВ) 10 км    10/0 верхняя 
[Cs]
-4.8 -10.3 65 -4  1025.6  -1.9  751  309           
12 21.02.18 060 (СВ) 10 км    8/0 верхняя 
[Cs]
-5.5 -9.9 71 -7  1023.5  -2.1  750  309    -4.2       
15 21.02.18 080 (В) 10 км    10/0 верхняя 
[Cs]
-8.4 -11 81 -8  1021.6  -2.1  748  312           
18 21.02.18 070 (В) 10 км    10/0 верхняя 
[Cs]
-8.3 -11 81 -10  1019.2  -2.4  746  311           
21 21.02.18 110 (В) 10 км    10/0 верхняя 
[Cs]
-8.2 -10.8 81 -10  1018.2  -0.9  746  311           
00 22.02.18 180 (Ю) 10 км    10/0 средняя 
[As op]
-3.3 -7.3 74 -4  1016.4  -1.4  745  305  -9.9      17  неравномерный
сухой снег
100% 
03 22.02.18 180 (Ю) 4000 м  слаб. снег  10/0 средняя 
[As op]
-3.1 -4.4 91 -5  1016.2  -0.1  745  304           
09 22.02.18 230 (ЮЗ) 10-13{15}  10 км  позёмок{снег}  8/0 средняя, верхняя 
[Ac trans|Ci fib]
-4.5 -8.1 76 -10  1019.1  2.1  747  307           
12 22.02.18 230 (ЮЗ) 8-11{13}  10 км  позёмок{снег}  8/0 средняя, верхняя 
[Ac trans|Ci fib]
-8.9 -11.8 79 -15  1022.7  749  313    -1.8     
15 22.02.18 220 (ЮЗ) 2{12}  10 км    ясно 
-12 -14 85 -14  1025.6  2.6  751  318           
18 22.02.18 200 (Ю) 10 км    ясно 
-13 -14.7 87 -15  1027.1  1.4  752  319           
21 22.02.18 230 (ЮЗ) 4000 м  слаб. снег  10/0 средняя 
[As op]
-14.4 -15.8 89 -14  1027.9  0.6  752  321           
00 23.02.18 220 (ЮЗ) 10 км  {снег}  4/0 верхняя 
[Ci fib]
-15.1 -16.6 88 -15  1027.9  752  322  -18.6    0.0  18  неравномерный
сухой снег
100% 
03 23.02.18 140 (ЮВ) 10 км    10/0 средняя 
[As op]
-16.1 -17.8 87 -16  1027.7  -0.3  752  324           
06 23.02.18 150 (ЮВ) 10 км    ясно 
-11 -13.5 82 -13  1026.8  -0.5  752  317           
Время (UTC), дата Ветер
(°,м/с) 
Видим.   Явления Облачность Т
(°С)
Тd
(°С)
f(%) Тe
(°С)
Pmin
(гПа)
dP
(гПа)
Po
(мм)
O2
(г/м3)
Тmin Tmax R s Состояние
почвы

Для получения пояснительной информации подведите курсор к названию столбца.

ПОГОДА в Барнауле - архив

Всё, что Вы хотите узнать о погоде в Барнауле - удобно и подробно!

Выберите нужную дату (начиная с 1 января 2015* года) и нажмите кнопку "Найти".
Будут отображены архивные сводки погоды по пункту Барнаул, начиная с указанной даты.


Отображать данные в формате CSV (для использования в таблицах Excel)


Внимание! Наш архив погоды предназначен исключительно для личного некоммерческого использования в познавательных целях. Если Вам необходимы официальные справки о состоянии погоды (для производственных, юридических, коммерческих и т.п. целей), обращайтесь в органы Росгидромета.

*Примечание: данная дата относится к архиву по метеостанциям СССР (Россия, СНГ, Балтия).
Архив по метеостанциям Зарубежной Европы и Азии (кроме Китая) хранится 10 дней, по другим регионам земного шара (Китай, Африка, Америка, Австралия, Океания) - 1 день.

Барнаул - район местоположения метеостанции


Название, широта, долгота, высота метеостанции:
Барнаул (город) 53.4°ш. 83.5°д. 184 м над ур. моря [Российская Федерация]

Дополнительная информация

В oтличие oт бoльшинства пoгoдных сайтoв мы публикуем пoдрoбную метеoинфoрмацию в детальнoм прoфессиoнальнoм фoрмате.

Характеристики температуры и влажнoсти вoздуха измеряются на высoте 2 м в тени вдали oт зданий и деревьев.
Скoрoсть ветра измеряется на высoте 10 м (на урoвне рoста челoвека скoрoсть ветра ниже в 1.5-2 раза). Если метеoстанция нахoдится в гoрoде или в лесу, тo скoрoсть ветра занижена на 2-4 м/с пo сравнению с oткрытым местoм. Скoрoсть ветра над акватoриями крупных рек и oзёр, а также на вершинах хoлмoв на 2-5 м/с выше, чем в oбычных услoвиях.
Атмoсфернoе давление в разных тoчках местнoсти мoжет значительнo oтличаться oт давления на метеoстанции, в зависимoсти oт услoвий рельефа (при пoдъёме на 10 м давление пoнижается примернo на 1 мм рт.ст.).